#timestamp,LO_Frequency,Hit,StdDev 
1634864415.3,286047002.3,N
1634864435.1,286047002.8,N
1634864455.8,286047002.2,N
1634864475.7,286047004.2,Y
1634864495.5,286047002.7,P
1634864515.3,286047002.5,P
1634864535.2,286047001.5,P
1634864555.0,286047002.1,Y
1634864555.9,286047002.1,P
1634864575.7,286047001.0,P
1634864595.6,286047000.4,N
1634864615.4,286047001.0,N
1634864635.2,286047000.4,N
1634864655.1,286047000.9,N
1634864656.0,286047000.9,N
1634864675.8,286047002.3,Y
1634864695.6,286047000.9,P
1634864715.5,286047000.1,N
1634864735.3,286047001.1,N
1634864755.1,286047001.0,N
1634864775.9,286047001.0,N
1634864795.7,286047002.1,Y
1634864815.5,286047002.3,P
1634864835.4,286047001.3,N
1634864855.2,286047002.1,P
1634864875.0,286047000.9,N
1634864875.9,286047000.9,N
1634864895.8,286046999.8,N
1634864915.6,286047001.9,N
1634864935.4,286047002.0,N
1634864955.3,286046999.7,N
1634864975.1,286047002.7,Y
1634864995.8,286046998.3,P
1634865015.7,286046998.2,N
1634865035.5,286047001.0,N
1634865055.3,286047001.5,N
1634865075.2,286047003.7,N
1634865095.0,286047004.2,N
1634865095.9,286047004.2,N
1634865115.7,286047004.3,N
1634865135.6,286047001.8,N
1634865155.4,286047001.7,N
1634865175.2,286047002.2,N
1634865195.1,286047004.0,N
1634865196.0,286047004.0,N
1634865215.8,286047001.7,N
1634865235.6,286047001.8,N
1634865255.5,286047003.3,N
1634865275.3,286047003.2,N
1634865295.1,286047003.5,N
1634865315.9,286047003.4,N
1634865335.7,286047003.1,N
1634865355.5,286047006.0,Y
1634865375.4,286047001.8,P
1634865395.2,286047001.9,P
1634865415.0,286047001.8,P
1634865415.9,286047001.8,Y
1634865435.8,286047002.7,P
1634865455.6,286047001.9,P
1634865475.4,286047004.2,P
1634865495.3,286047002.1,N
1634865515.1,286047003.9,Y
1634865535.8,286047000.5,P
1634865555.7,286047000.9,N
1634865575.5,286047000.8,N
1634865595.3,286047000.9,N
1634865615.2,286047001.2,N
1634865635.0,286047002.4,Y
1634865635.9,286047002.4,P
1634865655.7,286046998.8,N
1634865675.6,286046999.3,N
1634865695.4,286046998.7,N
1634865715.2,286046999.5,N
1634865735.1,286046998.2,N
1634865736.0,286046998.2,N
1634865755.8,286046998.6,N
1634865775.6,286046998.5,N
1634865795.5,286047001.0,N
1634865815.3,286047002.2,N
1634865835.1,286047002.3,N
1634865855.9,286047002.4,N
1634865875.7,286046999.7,N
1634865895.5,286047002.7,N
1634865915.4,286047005.9,Y
1634865935.2,286047005.9,P
1634865955.0,286047005.0,N
1634865955.9,286047005.0,N
1634865975.8,286047005.7,N
1634865995.6,286047005.1,N
1634866015.4,286047003.0,N
1634866035.3,286047005.1,N
1634866055.1,286047007.5,Y
1634866075.8,286047002.3,P
1634866095.7,286047000.0,N
1634866115.5,286047000.9,N
1634866135.3,286046999.7,N
1634866155.2,286047001.6,N
1634866175.0,286047003.8,N
1634866175.9,286047003.8,N
1634866195.7,286047003.2,N
1634866215.6,286047001.6,N
1634866235.4,286047004.0,N
1634866255.2,286047001.7,N
1634866275.1,286047004.3,N
1634866276.0,286047004.3,N
1634866295.8,286047004.2,N
1634866315.6,286047003.5,N
1634866335.5,286047004.1,N
1634866355.3,286047003.3,N
1634866375.1,286047003.2,N
1634866395.9,286047003.1,N
1634866415.7,286047004.2,N
1634866435.5,286047004.1,N
1634866455.4,286047005.5,Y
1634866475.2,286047002.5,P
1634866495.0,286047002.7,P
1634866495.9,286047002.7,P
1634866515.8,286047004.1,Y
1634866535.6,286047000.0,P
1634866555.4,286047001.1,N
1634866575.3,286046998.6,N
1634866595.1,286046998.3,N
1634866615.8,286046997.0,N
1634866635.7,286046998.7,N
1634866655.5,286046998.3,N
1634866675.3,286046998.6,N
1634866695.2,286047000.8,N
1634866715.9,286047001.2,N
1634866735.7,286047001.0,N
1634866755.6,286047000.3,N
1634866775.4,286047000.8,N
1634866795.2,286047000.3,N
1634866815.1,286047000.8,N
1634866816.0,286047000.8,N
1634866835.8,286046999.4,N
1634866855.6,286046998.5,N
1634866875.5,286046998.7,N
1634866895.3,286046998.8,N
1634866915.1,286046999.4,N
1634866935.9,286046999.0,N
1634866955.7,286046998.6,N
1634866975.5,286047000.1,N
1634866995.4,286046999.9,N
1634867015.2,286046999.8,N
1634867035.0,286047001.9,N
1634867035.9,286047001.9,N
1634867055.8,286047001.8,N
1634867075.6,286047000.2,N
1634867095.4,286046999.8,N
1634867115.3,286047000.6,N
1634867135.1,286047000.8,N
1634867136.0,286047000.8,N
1634867155.8,286046998.2,N
1634867175.7,286047000.7,N
1634867195.5,286047001.1,N
1634867215.3,286046998.4,N
1634867235.1,286046999.4,N
1634867255.9,286046999.3,N
1634867275.7,286046997.8,N
1634867295.5,286046996.5,Y
1634867315.4,286046999.3,P
1634867335.2,286046999.0,P
1634867355.0,286046999.3,N
1634867355.9,286046999.3,N
1634867375.8,286046999.4,N
1634867395.6,286046998.4,Y
1634867415.4,286046999.6,P
1634867435.3,286046998.7,P
1634867455.1,286046998.9,N
1634867475.8,286046997.0,Y
1634867495.7,286046998.9,P
1634867515.5,286046999.0,P
1634867535.3,286046996.5,P
1634867555.2,286046997.5,N
1634867575.0,286046999.4,N
1634867575.9,286046999.4,N
1634867595.7,286046999.0,N
1634867615.6,286046996.7,Y
1634867635.4,286046998.2,P
1634867655.2,286047000.3,N
1634867675.1,286047000.0,N
1634867676.0,286047000.0,N
1634867695.8,286047001.6,N
1634867715.6,286047002.6,N
1634867735.5,286046999.7,N
1634867755.3,286047001.5,N
1634867775.1,286047001.6,N
1634867795.9,286047002.3,N
1634867815.7,286047000.1,N
1634867835.5,286047002.1,N
1634867855.4,286047004.4,Y
1634867875.2,286047000.1,P
1634867895.0,286047002.6,P
1634867895.9,286047002.6,N
1634867915.8,286047002.8,N
1634867935.6,286047001.5,N
1634867955.4,286047002.6,N
1634867975.3,286046999.8,N
1634867995.1,286047002.8,N
